Weather History for Shirley, NY

Change the Weather History Date:

Sunday, May 18, 2014

  Actual Average (KISP) Record (KISP)
Temperature  
Mean Temperature 56 °F 59 °F  
Max Temperature 68 °F 68 °F 84 °F (1998)
Min Temperature 46 °F 50 °F 38 °F (2003)
Degree Days  
Heating Degree Days 9 6  
Month to date heating degree days 157  
Since 1 July heating degree days 5328  
Cooling Degree Days 0 1  
Month to date cooling degree days 2  
Year to date cooling degree days 4  
Growing Degree Days 6 (Base 50)    
Moisture  
Dew Point 38 °F    
Average Humidity 50    
Maximum Humidity 77    
Minimum Humidity 30    
Precipitation  
Precipitation 0.00 in 0.12 in 1.60 in (2002)
Month to date precipitation 2.06  
Year to date precipitation 17.74  
Snow  
Snow 0.00 in 0.00 in - ()
Month to date snowfall 0.0  
Since 1 July snowfall 24.8  
Snow Depth -    
Sea Level Pressure  
Sea Level Pressure 30.13 in    
Wind  
Wind Speed 9 mph (NW)    
Max Wind Speed 17 mph    
Max Gust Speed 23 mph    
Visibility 10 miles    
Events      
T = Trace of Precipitation, MM = Missing Value Source: NWS Daily Summary

Daily Weather History Graph

Daily Weather History Graph

Search for Another Location

Airport:

Trip Planner

Search our weather history database for the weather conditions in past years. The results will help you decide how hot, cold, wet, or windy it might be!

Date:

Astronomy

May. 18, 2014 Rise Set
Actual Time 5:31 AM EDT 8:04 PM EDT
Civil Twilight 4:59 AM EDT 8:36 PM EDT
Nautical Twilight 4:20 AM EDT 9:15 PM EDT
Astronomical Twilight 3:36 AM EDT 10:00 PM EDT
Moon 11:50 PM EDT (5/18) 9:17 AM EDT (5/18)
Length of Visible Light 15h 36m
Length of Day
14h 33m
Waning Gibbous, 81% of the Moon is Illuminated
May 18
Waning Gibbous
May 21
Last Quarter
May 28
New
Jun 5
First Quarter
Jun 13
Full

Hourly Weather History & Observations

Time (EDT) Temp. Dew Point Humidity Pressure Visibility Wind Dir Wind Speed Gust Speed Precip Events Conditions
12:56 AM 54.0 °F 46.9 °F 77% 30.10 in 10.0 mi NW 5.8 mph - N/A   Clear
1:56 AM 53.1 °F 45.0 °F 74% 30.10 in 10.0 mi NNW 9.2 mph - N/A   Clear
2:56 AM 52.0 °F 44.1 °F 74% 30.11 in 10.0 mi NNW 8.1 mph - N/A   Clear
3:56 AM 50.0 °F 41.0 °F 71% 30.13 in 10.0 mi NNW 5.8 mph - N/A   Clear
4:56 AM 48.9 °F 39.9 °F 71% 30.14 in 10.0 mi NNW 5.8 mph - N/A   Clear
5:56 AM 46.9 °F 39.9 °F 77% 30.16 in 10.0 mi NNW 6.9 mph - N/A   Clear
6:56 AM 52.0 °F 42.1 °F 69% 30.17 in 10.0 mi NNW 5.8 mph - N/A   Clear
7:56 AM 55.9 °F 39.9 °F 55% 30.17 in 10.0 mi North 9.2 mph - N/A   Clear
8:56 AM 57.9 °F 37.0 °F 46% 30.17 in 10.0 mi North 11.5 mph - N/A   Clear
9:56 AM 60.1 °F 36.0 °F 41% 30.17 in 10.0 mi North 10.4 mph - N/A   Clear
10:56 AM 63.0 °F 36.0 °F 37% 30.16 in 10.0 mi WNW 12.7 mph 21.9 mph N/A   Clear
11:56 AM 64.9 °F 36.0 °F 34% 30.15 in 10.0 mi NNW 9.2 mph 21.9 mph N/A   Clear
12:56 PM 64.9 °F 35.1 °F 33% 30.13 in 10.0 mi NW 13.8 mph 20.7 mph N/A   Clear
1:56 PM 66.9 °F 37.0 °F 33% 30.12 in 10.0 mi WNW 15.0 mph 20.7 mph N/A   Partly Cloudy
2:56 PM 66.9 °F 36.0 °F 32% 30.11 in 10.0 mi West 11.5 mph 23.0 mph N/A   Partly Cloudy
3:56 PM 66.9 °F 35.1 °F 31% 30.09 in 10.0 mi NNW 15.0 mph - N/A   Partly Cloudy
4:56 PM 66.9 °F 34.0 °F 30% 30.09 in 10.0 mi NW 17.3 mph 23.0 mph N/A   Clear
5:56 PM 66.0 °F 35.1 °F 32% 30.09 in 10.0 mi WNW 16.1 mph 20.7 mph N/A   Clear
6:56 PM 64.0 °F 35.1 °F 34% 30.09 in 10.0 mi WNW 9.2 mph - N/A   Clear
7:56 PM 61.0 °F 36.0 °F 39% 30.11 in 10.0 mi WNW 11.5 mph - N/A   Clear
8:56 PM 57.9 °F 37.0 °F 46% 30.12 in 10.0 mi NW 9.2 mph - N/A   Clear
9:56 PM 55.0 °F 37.0 °F 51% 30.13 in 10.0 mi NW 5.8 mph - N/A   Clear
10:56 PM 55.0 °F 37.9 °F 53% 30.13 in 10.0 mi NW 9.2 mph - N/A   Clear
11:56 PM 54.0 °F 37.9 °F 55% 30.13 in 10.0 mi NW 9.2 mph - N/A   Clear